Weather in Vol'ny

Russia / Oryol Oblast     52°48′48″N   37°49′55″E
temp.,
°C
wind,
m/s
gust,
m/s
humid.,
%
clouds,
%
prec.,
mm/h
press.,
hPa
HPBL,
m
19 january, wed
wed1900:00−9n9189098 0.4 1013531
03:00−11n7169295 0.4 1015417
06:00−13nnw6149473 0.0 1018300
09:00−16nnw4109749 0.0 1020158
12:00−14nnw379514 0.0 1020151
15:00−12nw249377 0.0 1020105
18:00−18w22998 0.0 10209
21:00−20wsw221008 0.0 102015
20 january, thu
thu2000:00−18sw359713 0.0 101958
03:00−16ssw379778 0.0 101893
06:00−12ssw499777 0.1 1016153
09:00−12s5129794 0.1 1016208
12:00−9s61496100 0.1 1014341
15:00−8s61594100 0.1 1012424
18:00−9s7169387 0.0 1011378
21:00−9s71694100 0.1 1011411
21 january, fri
fri2100:00−7s71694100 0.1 1010498
03:00−7s71495100 0.6 1009447
06:00−6sse61296100 1.8 1007477
09:00−5sse61396100 3.6 1006547
12:00−3s71396100 1.1 1004621
15:00−2ssw61097100 2.4 1003804
18:00−6sw511905 0.6 1005275
21:00−10s5139669 0.6 1007234
22 january, sat
sat2200:00−8s61295100 0.0 1007350
03:00−9s61295100 0.1 1007362
06:00−9sse51196100 0.1 1008281
09:00−9s6119599 0.5 1010307
12:00−9s499568 0.1 1012258
15:00−9sse479681 0.1 1014194
18:00−12se359884 0.1 101669
21:00−12sse249893 0.1 101858
23 january, sun
sun2300:00−15sse22100100 0.0 102012
03:00−14ese2299100 0.1 102220
06:00−14se229871 0.1 102431
09:00−18se2210099 0.1 102710
12:00−10sse119670 0.0 102852
15:00−10ene229759 0.0 102914
18:00−16ene339971 0.0 103119
21:00−15ene34100100 0.0 103242